period_start,C,m1,H,J0,J1,J2,J3,J4,J5,JA,JB,JC,JD,JJ,JK,JN,#
2013-08-18 00:00:49,0.00,0.02,0.00,25.71,29.97,31.42,5.80,30.00,1008.80,2039.99,3467.98,3331.01,3628.00,349.88,318.44,1.02,0000 0000 0000 0000 000000
2013-08-18 00:01:49,0.00,0.02,0.00,25.69,29.97,31.48,5.82,30.00,1008.80,2039.99,3467.97,3331.00,3628.00,349.85,318.45,1.03,0000 0000 0000 0000 000000
2013-08-18 00:02:49,0.00,0.02,0.00,25.66,29.97,31.47,5.71,29.83,1008.80,2039.99,3467.98,3331.00,3628.00,349.56,318.21,1.04,0000 0000 0000 0000 000000
2013-08-18 00:03:49,0.00,0.02,0.00,25.65,29.97,31.45,5.82,30.08,1008.80,2039.99,3467.99,3331.00,3628.00,348.73,317.38,1.04,0000 0000 0000 0000 000000
2013-08-18 00:04:50,0.00,0.02,0.00,25.64,29.97,31.47,5.87,29.92,1008.80,2039.99,3467.95,3331.00,3628.00,349.80,318.07,1.05,0000 0000 0000 0000 000000
2013-08-18 00:05:50,0.00,0.02,0.00,25.67,29.97,31.45,5.78,29.88,1008.80,2039.99,3467.94,3331.01,3628.00,349.43,318.04,1.05,0000 0000 0000 0000 000000
2013-08-18 00:06:50,0.00,0.02,0.00,25.66,29.97,31.42,5.85,30.00,1008.79,2039.99,3467.92,3331.00,3628.00,350.09,318.69,1.06,0000 0000 0000 0000 000000
2013-08-18 00:07:50,0.00,0.02,0.00,25.65,29.97,31.40,5.89,29.92,1008.80,2039.99,3467.88,3331.00,3628.00,350.58,318.75,1.06,0000 0000 0000 0000 000000
2013-08-18 00:08:50,0.01,0.02,0.00,25.66,29.97,31.48,5.83,29.83,1008.80,2039.99,3467.90,3331.00,3628.00,349.38,318.20,1.07,0000 0000 0000 0000 000000
2013-08-18 00:09:50,0.00,0.02,0.00,25.67,29.97,31.47,5.79,30.04,1008.80,2039.99,3467.84,3331.00,3628.00,349.03,317.72,1.08,0000 0000 0000 0000 000000
2013-08-18 00:10:51,0.00,0.02,0.00,25.65,29.97,31.43,5.81,29.96,1008.80,2039.99,3467.66,3331.00,3627.99,349.37,318.05,1.08,0000 0000 0000 0000 000000
2013-08-18 00:11:51,0.02,0.02,0.00,25.66,29.97,31.41,5.86,29.92,1008.80,2039.99,3467.37,3331.00,3627.99,349.78,318.59,1.09,0000 0000 0000 0000 000000
2013-08-18 00:12:51,0.04,0.02,0.00,25.67,29.97,31.41,5.83,29.71,1008.80,2039.99,3467.17,3331.00,3627.96,349.53,318.18,1.09,0000 0000 0000 0000 000000
2013-08-18 00:13:51,0.02,0.02,0.00,25.64,29.96,31.42,5.80,30.13,1008.79,2039.99,3467.19,3331.00,3627.96,349.34,318.03,1.10,0000 0000 0000 0000 000000
2013-08-18 00:14:52,0.00,0.02,0.00,25.59,29.96,31.41,5.93,29.96,1008.77,2039.99,3467.16,3331.00,3627.95,350.38,319.02,1.11,0000 0000 0000 0000 000000
2013-08-18 00:15:52,0.01,0.02,0.00,25.60,29.95,31.42,5.83,30.04,1008.73,2039.99,3467.13,3331.00,3627.96,348.66,317.44,1.11,0000 0000 0000 0000 000000
2013-08-18 00:16:52,0.00,0.02,0.00,25.61,29.95,31.39,5.83,29.88,1008.77,2039.99,3467.09,3331.00,3627.96,350.03,318.85,1.12,0000 0000 0000 0000 000000
2013-08-18 00:17:52,0.00,0.02,0.00,25.60,29.95,31.43,5.86,29.79,1008.73,2039.99,3467.08,3331.00,3627.94,350.93,319.62,1.12,0000 0000 0000 0000 000000
2013-08-18 00:18:52,0.00,0.02,0.00,25.60,29.95,31.43,5.96,29.79,1008.74,2039.99,3467.06,3331.00,3627.93,350.21,318.98,1.13,0000 0000 0000 0000 000000
2013-08-18 00:19:53,0.00,0.02,0.00,25.59,29.95,31.41,5.92,30.08,1008.70,2039.99,3467.03,3331.00,3627.76,349.88,318.96,1.13,0000 0000 0000 0000 000000
2013-08-18 00:20:53,0.03,0.02,0.00,25.56,29.95,31.42,5.93,30.08,1008.61,2039.99,3467.01,3330.96,3627.45,350.12,318.99,1.14,0000 0000 0000 0000 000000
2013-08-18 00:21:53,0.04,0.02,0.00,25.57,29.95,31.39,5.91,30.04,1008.60,2039.99,3467.00,3330.96,3627.27,350.06,318.70,1.15,0000 0000 0000 0000 000000
2013-08-18 00:22:53,0.01,0.02,0.00,25.59,29.95,31.42,5.89,30.00,1008.59,2040.00,3467.00,3330.97,3627.24,349.56,317.88,1.15,0000 0000 0000 0000 000000
2013-08-18 00:23:53,0.01,0.02,0.00,25.61,29.95,31.43,5.90,30.00,1008.57,2040.00,3467.00,3330.97,3627.14,350.07,318.66,1.16,0000 0000 0000 0000 000000
2013-08-18 00:24:54,0.00,0.02,0.00,25.60,29.95,31.39,5.87,30.00,1008.62,2040.00,3467.00,3330.95,3627.11,349.66,318.22,1.16,0000 0000 0000 0000 000000
2013-08-18 00:25:54,0.00,0.02,0.00,25.58,29.95,31.50,5.79,30.08,1008.66,2040.00,3467.00,3330.96,3627.08,349.74,318.42,1.17,0000 0000 0000 0000 000000
2013-08-18 00:26:54,0.00,0.02,0.00,25.56,29.95,31.50,5.98,29.96,1008.58,2040.00,3467.00,3330.92,3627.04,350.45,319.06,1.18,0000 0000 0000 0000 000000
2013-08-18 00:27:54,0.02,0.02,0.00,25.61,29.95,31.46,5.93,30.08,1008.64,2040.00,3466.70,3330.50,3627.02,350.39,318.98,1.18,0000 0000 0000 0000 000000
2013-08-18 00:28:54,0.14,0.02,0.00,25.59,29.95,31.44,5.92,30.00,1008.63,2040.01,3466.39,3330.21,3626.99,350.59,319.17,1.19,0000 0000 0000 0000 000000
2013-08-18 00:29:55,0.10,0.02,0.00,25.57,29.95,31.46,5.79,29.75,1008.67,2040.00,3466.18,3330.09,3626.98,349.77,318.46,1.19,0000 0000 0000 0000 000000
2013-08-18 00:30:55,0.03,0.02,0.00,25.57,29.95,31.48,5.84,29.96,1008.65,2040.01,3466.10,3330.05,3626.98,349.98,318.78,1.20,0000 0000 0000 0000 000000
2013-08-18 00:31:55,0.00,0.02,0.00,25.55,29.95,31.46,5.93,29.96,1008.54,2040.00,3466.05,3330.05,3626.98,350.74,319.32,1.20,0000 0000 0000 0000 000000
2013-08-18 00:32:55,0.01,0.02,0.00,25.58,29.95,31.40,5.96,29.88,1008.47,2040.00,3466.04,3330.04,3626.99,350.19,318.30,1.21,0000 0000 0000 0000 000000
2013-08-18 00:33:56,-0.01,0.02,0.00,25.58,29.95,31.43,5.88,29.96,1008.48,2040.00,3466.01,3330.02,3626.98,349.91,318.52,1.22,0000 0000 0000 0000 000000
2013-08-18 00:34:56,0.01,0.02,0.00,25.59,29.95,31.41,6.01,29.92,1008.51,2040.00,3466.00,3330.01,3626.98,350.18,318.66,1.22,0000 0000 0000 0000 000000
2013-08-18 00:35:56,0.00,0.02,0.00,25.61,29.95,31.47,5.83,29.96,1008.45,2040.00,3466.00,3330.01,3626.98,350.40,318.92,1.23,0000 0000 0000 0000 000000
2013-08-18 00:36:57,0.00,0.02,0.00,25.63,29.95,31.54,5.77,29.83,1008.43,2040.00,3466.00,3330.00,3626.98,350.33,318.83,1.23,0000 0000 0000 0000 000000
2013-08-18 00:37:57,0.00,0.02,0.00,25.62,29.95,31.47,5.96,29.88,1008.43,2040.01,3466.00,3330.00,3626.95,351.25,319.39,1.24,0000 0000 0000 0000 000000
2013-08-18 00:38:57,0.02,0.02,0.00,25.58,29.95,31.47,5.78,29.75,1008.42,2040.01,3466.00,3330.01,3626.91,349.51,318.00,1.25,0000 0000 0000 0000 000000
2013-08-18 00:39:57,0.00,0.02,0.00,25.58,29.95,31.46,5.73,29.75,1008.39,2040.01,3466.00,3330.01,3626.84,349.77,318.04,1.25,0000 0000 0000 0000 000000
2013-08-18 00:40:57,0.01,0.02,0.00,25.62,29.95,31.43,5.70,30.08,1008.35,2040.00,3466.00,3330.00,3626.69,349.40,317.61,1.26,0000 0000 0000 0000 000000
2013-08-18 00:41:58,0.01,0.02,0.00,25.59,29.95,31.44,5.67,30.00,1008.34,2040.00,3465.99,3330.00,3626.40,348.70,316.86,1.26,0000 0000 0000 0000 000000
2013-08-18 00:42:58,0.03,0.02,0.00,25.58,29.95,31.43,5.77,29.96,1008.33,2040.02,3465.99,3330.00,3626.29,348.88,317.70,1.27,0000 0000 0000 0000 000000
2013-08-18 00:43:58,0.04,0.02,0.00,25.60,29.95,31.43,5.85,29.79,1008.32,2040.02,3465.96,3330.00,3626.14,350.62,319.09,1.27,0000 0000 0000 0000 000000
2013-08-18 00:44:58,0.01,0.02,0.00,25.58,29.95,31.45,5.98,29.83,1008.33,2040.00,3465.92,3330.00,3626.14,350.92,319.39,1.28,0000 0000 0000 0000 000000
2013-08-18 00:45:59,-0.01,0.02,0.00,25.61,29.94,31.42,5.86,29.83,1008.32,2040.00,3465.93,3330.00,3626.10,349.92,318.80,1.29,0000 0000 0000 0000 000000
2013-08-18 00:46:59,0.00,0.02,0.00,25.63,29.94,31.44,5.75,29.83,1008.32,2040.00,3465.91,3330.00,3626.12,349.41,317.63,1.29,0000 0000 0000 0000 000000
2013-08-18 00:47:59,0.00,0.02,0.00,25.60,29.94,31.44,6.05,30.04,1008.32,2040.01,3465.85,3330.00,3626.09,349.74,318.38,1.30,0000 0000 0000 0000 000000
2013-08-18 00:48:59,0.02,0.02,0.00,25.58,29.94,31.48,5.79,29.67,1008.33,2040.04,3465.73,3330.00,3626.05,350.48,318.99,1.30,0000 0000 0000 0000 000000
2013-08-18 00:49:59,0.03,0.02,0.00,25.60,29.94,31.43,5.99,30.04,1008.32,2040.03,3465.65,3329.99,3626.05,350.07,318.59,1.31,0000 0000 0000 0000 000000
2013-08-18 00:51:00,0.00,0.02,0.00,25.57,29.93,31.41,5.84,30.00,1008.32,2040.01,3465.50,3329.99,3626.01,350.27,318.80,1.32,0000 0000 0000 0000 000000
2013-08-18 00:52:00,0.03,0.02,0.00,25.59,29.93,31.41,5.92,29.96,1008.32,2040.04,3465.33,3329.98,3626.01,350.21,318.73,1.32,0000 0000 0000 0000 000000
2013-08-18 00:53:00,0.04,0.02,0.00,25.60,29.93,31.40,5.98,30.00,1008.32,2040.02,3465.18,3329.97,3626.00,350.68,319.14,1.33,0000 0000 0000 0000 000000
2013-08-18 00:54:00,-0.01,0.02,0.00,25.60,29.93,31.35,5.89,29.96,1008.32,2040.00,3465.10,3329.96,3626.00,350.19,318.24,1.33,0000 0000 0000 0000 000000
2013-08-18 00:55:01,0.00,0.02,0.00,25.61,29.93,31.48,5.82,29.92,1008.32,2040.00,3465.05,3329.95,3626.00,349.60,318.15,1.34,0000 0000 0000 0000 000000
2013-08-18 00:56:01,0.00,0.02,0.00,25.63,29.92,31.51,5.88,29.96,1008.32,2040.02,3465.05,3329.95,3626.00,349.48,318.03,1.35,0000 0000 0000 0000 000000
2013-08-18 00:57:01,0.01,0.02,0.00,25.64,29.92,31.45,5.63,29.92,1008.32,2040.03,3465.02,3329.93,3626.00,348.66,317.26,1.35,0000 0000 0000 0000 000000
2013-08-18 00:58:01,0.02,0.02,0.00,25.62,29.92,31.41,6.01,29.96,1008.32,2040.04,3465.00,3329.92,3626.00,349.92,318.43,1.36,0000 0000 0000 0000 000000
2013-08-18 00:59:01,0.01,0.02,0.00,25.59,29.92,31.44,5.91,29.88,1008.32,2040.06,3465.00,3329.91,3626.00,349.89,318.44,1.36,0000 0000 0000 0000 000000
2013-08-18 01:00:02,0.00,0.02,0.00,25.63,29.92,31.43,5.83,30.00,1008.32,2040.05,3465.00,3329.86,3626.00,349.36,317.91,1.37,0000 0000 0000 0000 000000
2013-08-18 01:01:02,0.01,0.02,0.00,25.62,29.92,31.43,5.93,29.79,1008.32,2040.02,3465.01,3329.88,3626.00,350.17,318.67,1.37,0000 0000 0000 0000 000000
2013-08-18 01:02:02,-0.03,0.02,0.00,25.62,29.92,31.40,5.88,29.92,1008.32,2040.01,3465.00,3329.86,3625.99,349.49,318.23,1.38,0000 0000 0000 0000 000000
2013-08-18 01:03:02,0.00,0.02,0.00,25.61,29.92,31.37,6.03,29.92,1008.32,2040.03,3465.00,3329.89,3625.99,349.82,318.35,1.39,0000 0000 0000 0000 000000
2013-08-18 01:04:02,0.01,0.02,0.00,25.62,29.92,31.37,5.82,29.92,1008.32,2040.06,3465.00,3329.86,3625.98,349.32,318.26,1.39,0000 0000 0000 0000 000000
2013-08-18 01:05:03,0.04,0.02,0.00,25.61,29.92,31.39,5.87,29.79,1008.31,2040.09,3465.00,3329.84,3625.99,349.50,317.85,1.40,0000 0000 0000 0000 000000
2013-08-18 01:06:03,0.01,0.02,0.00,25.58,29.92,31.36,5.83,29.88,1008.28,2040.06,3465.00,3329.78,3625.99,350.41,318.91,1.40,0000 0000 0000 0000 000000
2013-08-18 01:07:03,-0.00,0.02,0.00,25.55,29.92,31.42,5.78,29.83,1008.24,2040.05,3464.99,3329.56,3625.96,350.29,319.05,1.41,0000 0000 0000 0000 000000
2013-08-18 01:08:03,0.04,0.02,0.00,25.58,29.92,31.39,5.75,29.71,1008.21,2040.04,3464.98,3329.33,3625.92,349.85,318.13,1.42,0000 0000 0000 0000 000000
2013-08-18 01:09:04,0.04,0.02,0.00,25.54,29.92,31.36,5.93,29.96,1008.12,2040.05,3464.99,3329.30,3625.84,350.19,318.49,1.42,0000 0000 0000 0000 000000
2013-08-18 01:10:04,0.01,0.02,0.00,25.54,29.92,31.38,6.02,29.92,1008.13,2040.08,3464.98,3329.33,3625.86,350.82,319.16,1.43,0000 0000 0000 0000 000000
2013-08-18 01:11:04,0.01,0.02,0.00,25.61,29.92,31.34,5.94,29.88,1007.98,2040.08,3464.97,3329.26,3625.74,349.78,318.21,1.43,0000 0000 0000 0000 000000
2013-08-18 01:12:04,0.03,0.02,0.00,25.64,29.92,31.34,5.92,30.00,1007.93,2040.08,3464.96,3329.17,3625.72,349.57,317.97,1.44,0000 0000 0000 0000 000000
2013-08-18 01:13:05,0.02,0.02,0.00,25.66,29.92,31.36,5.94,30.33,1007.92,2040.06,3464.94,3329.09,3625.69,349.52,317.91,1.44,0000 0000 0000 0000 000000
2013-08-18 01:14:05,0.01,0.02,0.00,25.61,29.92,31.39,5.83,30.08,1007.91,2040.07,3464.89,3329.06,3625.65,349.91,318.63,1.45,0000 0000 0000 0000 000000
2013-08-18 01:15:05,0.00,0.02,0.00,25.62,29.92,31.38,5.83,30.00,1007.88,2040.08,3464.91,3329.10,3625.63,350.16,318.51,1.46,0000 0000 0000 0000 000000
2013-08-18 01:16:05,0.02,0.02,0.00,25.63,29.92,31.37,5.98,30.04,1007.88,2040.22,3464.93,3329.21,3625.68,350.15,318.49,1.46,0000 0000 0000 0000 000000
2013-08-18 01:17:06,0.05,0.02,0.00,25.60,29.92,31.38,5.88,29.96,1007.86,2040.27,3464.93,3329.21,3625.66,349.93,318.30,1.47,0000 0000 0000 0000 000000
2013-08-18 01:18:06,0.06,0.02,0.00,25.59,29.92,31.39,5.90,30.00,1007.87,2040.23,3464.81,3329.11,3625.42,350.09,318.18,1.47,0000 0000 0000 0000 000000
2013-08-18 01:19:06,0.01,0.02,0.00,25.60,29.92,31.35,5.88,29.92,1007.92,2040.20,3464.80,3329.11,3625.34,350.29,318.65,1.48,0000 0000 0000 0000 000000
2013-08-18 01:20:07,-0.00,0.02,0.00,25.59,29.92,31.36,5.82,29.92,1007.87,2040.18,3464.65,3329.08,3625.26,349.69,318.12,1.49,0000 0000 0000 0000 000000
2013-08-18 01:21:07,0.01,0.02,0.00,25.64,29.92,31.45,5.90,29.96,1007.84,2040.19,3464.44,3329.10,3625.18,349.86,318.20,1.49,0000 0000 0000 0000 000000
2013-08-18 01:22:07,0.03,0.02,0.00,25.62,29.92,31.43,5.75,29.75,1007.84,2040.14,3464.45,3329.06,3625.16,349.42,318.01,1.50,0000 0000 0000 0000 000000
2013-08-18 01:23:07,-0.01,0.02,0.00,25.61,29.92,31.39,5.91,29.92,1007.85,2040.10,3464.32,3329.05,3625.10,350.21,318.57,1.50,0000 0000 0000 0000 000000
2013-08-18 01:24:08,0.02,0.02,0.00,25.59,29.91,31.37,5.77,29.88,1007.87,2040.15,3464.18,3329.04,3625.06,349.22,318.18,1.51,0000 0000 0000 0000 000000
2013-08-18 01:25:08,0.05,0.02,0.00,25.58,29.91,31.36,5.93,29.83,1007.88,2040.23,3464.12,3329.03,3625.04,350.48,318.93,1.52,0000 0000 0000 0000 000000
2013-08-18 01:26:08,0.07,0.02,0.00,25.57,29.91,31.34,6.01,29.79,1007.87,2040.34,3464.16,3329.06,3625.04,350.10,318.64,1.52,0000 0000 0000 0000 000000
2013-08-18 01:27:09,0.03,0.03,0.00,25.59,29.91,31.38,5.86,29.92,1007.86,2040.28,3464.11,3329.03,3625.05,350.06,318.07,1.53,0000 0000 0000 0000 000000
2013-08-18 01:28:09,-0.02,0.03,0.00,25.58,29.90,31.35,5.82,29.75,1007.88,2040.32,3464.14,3329.04,3625.07,350.38,319.05,1.53,0000 0000 0000 0000 000000
2013-08-18 01:29:09,0.01,0.03,0.00,25.59,29.90,31.33,5.85,29.75,1007.88,2040.30,3464.16,3329.04,3625.05,350.18,318.56,1.54,0000 0000 0000 0000 000000
2013-08-18 01:30:09,-0.01,0.03,0.00,25.63,29.90,31.30,5.90,29.88,1007.86,2040.21,3464.08,3329.01,3625.03,349.71,318.09,1.54,0000 0000 0000 0000 000000
2013-08-18 01:31:10,-0.02,0.02,0.00,25.61,29.90,31.31,5.86,29.88,1007.84,2040.37,3464.07,3329.02,3625.02,349.35,317.77,1.55,0000 0000 0000 0000 000000
2013-08-18 01:32:10,0.09,0.03,0.00,25.62,29.90,31.35,5.84,29.75,1007.85,2040.46,3464.05,3329.02,3625.01,349.69,318.08,1.56,0000 0000 0000 0000 000000
2013-08-18 01:33:10,0.08,0.03,0.00,25.58,29.90,31.33,5.93,29.71,1007.85,2040.38,3464.02,3329.02,3625.01,350.06,318.45,1.56,0000 0000 0000 0000 000000
2013-08-18 01:34:11,-0.04,0.03,0.00,25.59,29.90,31.32,5.98,29.67,1007.85,2040.37,3464.03,3329.03,3625.00,350.97,319.28,1.57,0000 0000 0000 0000 000000
2013-08-18 01:35:11,-0.01,0.03,0.00,25.53,29.90,31.32,5.83,29.71,1007.86,2040.38,3464.01,3329.02,3625.00,349.53,318.21,1.57,0000 0000 0000 0000 000000
2013-08-18 01:36:11,-0.00,0.03,0.00,25.53,29.90,31.32,6.02,29.92,1007.85,2040.34,3464.00,3329.00,3625.00,350.33,319.09,1.58,0000 0000 0000 0000 000000
2013-08-18 01:37:11,-0.03,0.03,0.00,25.51,29.90,31.33,5.77,29.83,1007.87,2040.42,3464.02,3329.00,3625.00,349.21,318.05,1.59,0000 0000 0000 0000 000000
2013-08-18 01:38:12,0.07,0.03,0.00,25.55,29.90,31.32,5.77,29.67,1007.86,2040.50,3464.02,3329.00,3625.00,349.83,318.28,1.59,0000 0000 0000 0000 000000
2013-08-18 01:39:12,0.06,0.03,0.00,25.55,29.90,31.35,5.85,29.71,1007.87,2040.56,3464.01,3329.03,3625.00,348.94,317.30,1.60,0000 0000 0000 0000 000000
2013-08-18 01:40:12,0.04,0.03,0.00,25.61,29.90,31.36,5.84,29.75,1007.85,2040.51,3464.00,3329.01,3625.00,350.46,318.47,1.60,0000 0000 0000 0000 000000
2013-08-18 01:41:12,-0.03,0.03,0.00,25.60,29.90,31.36,5.82,29.63,1007.86,2040.39,3464.00,3329.00,3625.00,349.54,318.07,1.61,0000 0000 0000 0000 000000
2013-08-18 01:42:13,-0.09,0.03,0.00,25.60,29.90,31.34,5.83,29.75,1007.83,2040.27,3464.00,3329.00,3625.00,349.56,317.98,1.61,0000 0000 0000 0000 000000
2013-08-18 01:43:13,-0.06,0.03,0.00,25.57,29.90,31.34,5.92,29.92,1007.83,2040.36,3464.00,3329.00,3625.00,350.81,319.14,1.62,0000 0000 0000 0000 000000
2013-08-18 01:44:13,0.04,0.03,0.00,25.54,29.90,31.36,5.86,29.83,1007.84,2040.44,3464.00,3329.00,3625.00,349.73,318.44,1.63,0000 0000 0000 0000 000000
2013-08-18 01:45:14,0.09,0.03,0.00,25.54,29.90,31.38,5.86,29.63,1007.84,2040.63,3464.00,3329.00,3625.00,350.57,318.84,1.63,0000 0000 0000 0000 000000
2013-08-18 01:46:14,0.14,0.03,0.00,25.56,29.90,31.37,6.12,29.88,1007.83,2040.76,3464.01,3329.01,3625.00,350.87,319.02,1.64,0000 0000 0000 0000 000000
2013-08-18 01:47:14,0.09,0.03,0.00,25.55,29.90,31.35,5.96,29.79,1007.85,2040.83,3464.00,3329.03,3625.01,349.69,318.15,1.64,0000 0000 0000 0000 000000
2013-08-18 01:48:15,0.04,0.03,0.00,25.59,29.90,31.38,5.82,29.63,1007.85,2040.89,3464.01,3329.06,3625.01,349.55,317.98,1.65,0000 0000 0000 0000 000000
2013-08-18 01:49:15,0.03,0.03,0.00,25.59,29.90,31.42,5.66,29.63,1007.83,2040.88,3464.00,3329.02,3625.00,349.97,318.32,1.66,0000 0000 0000 0000 000000
2013-08-18 01:50:15,0.01,0.03,0.00,25.60,29.90,31.44,5.94,29.67,1007.85,2040.87,3464.00,3329.02,3625.00,350.69,318.94,1.66,0000 0000 0000 0000 000000
2013-08-18 01:51:15,-0.00,0.03,0.00,25.53,29.90,31.33,6.01,29.75,1007.84,2040.88,3464.00,3329.02,3625.00,351.05,319.41,1.67,0000 0000 0000 0000 000000
2013-08-18 01:52:16,-0.01,0.03,0.00,25.53,29.90,31.31,5.79,29.79,1007.83,2040.88,3464.00,3329.03,3625.00,349.99,318.07,1.67,0000 0000 0000 0000 000000
2013-08-18 01:53:16,0.00,0.03,0.00,25.55,29.90,31.31,5.98,29.67,1007.84,2040.89,3464.00,3329.02,3625.00,350.11,318.54,1.68,0000 0000 0000 0000 000000
2013-08-18 01:54:16,-0.01,0.03,0.00,25.57,29.90,31.31,5.97,29.79,1007.84,2040.83,3464.00,3329.01,3625.00,350.70,318.67,1.69,0000 0000 0000 0000 000000
2013-08-18 01:55:17,-0.04,0.03,0.00,25.55,29.90,31.31,5.75,29.71,1007.84,2040.82,3464.00,3329.00,3625.00,349.39,317.66,1.69,0000 0000 0000 0000 000000
2013-08-18 01:56:17,0.02,0.03,0.00,25.56,29.90,31.36,5.67,29.67,1007.83,2040.91,3464.00,3329.00,3625.00,349.25,317.89,1.70,0000 0000 0000 0000 000000
2013-08-18 01:57:17,0.05,0.03,0.00,25.59,29.89,31.37,5.98,29.79,1007.84,2040.86,3464.00,3329.01,3625.00,350.41,318.76,1.70,0000 0000 0000 0000 000000
2013-08-18 01:58:17,-0.05,0.03,0.00,25.61,29.89,31.37,5.82,29.75,1007.83,2040.81,3464.00,3329.01,3625.00,349.26,318.08,1.71,0000 0000 0000 0000 000000
2013-08-18 01:59:18,-0.02,0.03,0.00,25.57,29.88,31.33,5.91,29.71,1007.83,2040.84,3464.00,3329.00,3624.99,350.31,318.38,1.71,0000 0000 0000 0000 000000
2013-08-18 02:00:18,0.02,0.03,0.00,25.58,29.88,31.31,5.83,29.75,1007.83,2040.81,3464.00,3329.00,3624.98,350.17,318.28,1.72,0000 0000 0000 0000 000000
2013-08-18 02:01:18,-0.00,0.03,0.00,25.60,29.88,31.42,5.95,29.79,1007.83,2040.85,3464.00,3329.00,3624.98,349.89,318.44,1.73,0000 0000 0000 0000 000000
2013-08-18 02:02:19,0.02,0.03,0.00,25.60,29.88,31.41,5.84,29.83,1007.83,2040.89,3464.00,3329.00,3624.99,350.27,318.43,1.73,0000 0000 0000 0000 000000
2013-08-18 02:03:19,0.04,0.03,0.00,25.58,29.87,31.35,5.90,29.83,1007.83,2040.94,3463.99,3329.01,3624.99,350.59,318.80,1.74,0000 0000 0000 0000 000000
2013-08-18 02:04:19,0.03,0.03,0.00,25.59,29.87,31.38,5.81,29.79,1007.83,2040.95,3463.99,3329.00,3624.98,350.43,318.57,1.74,0000 0000 0000 0000 000000
2013-08-18 02:05:19,0.01,0.03,0.00,25.57,29.87,31.45,5.77,29.79,1007.83,2040.96,3463.99,3329.00,3624.99,349.43,317.88,1.75,0000 0000 0000 0000 000000
2013-08-18 02:06:20,0.00,0.03,0.00,25.51,29.87,31.39,5.81,29.79,1007.83,2040.93,3463.98,3329.00,3624.97,349.89,318.36,1.76,0000 0000 0000 0000 000000
2013-08-18 02:07:20,-0.03,0.03,0.00,25.54,29.87,31.49,5.86,30.00,1007.83,2040.92,3463.98,3329.00,3624.97,350.82,319.19,1.76,0000 0000 0000 0000 000000
2013-08-18 02:08:20,-0.01,0.03,0.00,25.58,29.87,31.39,5.86,29.88,1007.83,2040.91,3463.98,3329.00,3624.98,349.69,318.11,1.77,0000 0000 0000 0000 000000
2013-08-18 02:09:20,-0.01,0.03,0.00,25.63,29.87,31.35,5.91,29.92,1007.83,2040.90,3463.99,3329.00,3624.98,349.82,318.17,1.77,0000 0000 0000 0000 000000
2013-08-18 02:10:21,-0.00,0.03,0.00,25.60,29.87,31.32,5.97,29.79,1007.83,2040.93,3463.99,3329.00,3624.98,350.28,318.84,1.78,0000 0000 0000 0000 000000
2013-08-18 02:11:21,0.02,0.03,0.00,25.57,29.87,31.35,5.87,29.88,1007.83,2040.94,3463.96,3329.00,3624.96,349.78,318.20,1.78,0000 0000 0000 0000 000000
2013-08-18 02:12:21,0.01,0.03,0.00,25.57,29.87,31.33,5.92,29.96,1007.83,2040.92,3463.96,3329.00,3624.93,350.13,318.52,1.79,0000 0000 0000 0000 000000
2013-08-18 02:13:21,-0.01,0.03,0.00,25.59,29.87,31.53,5.87,29.92,1007.83,2040.92,3463.94,3329.00,3624.92,349.74,318.11,1.80,0000 0000 0000 0000 000000
2013-08-18 02:14:21,0.01,0.03,0.00,25.61,29.87,31.47,5.97,29.63,1007.82,2040.92,3463.95,3329.00,3624.88,351.06,319.09,1.80,0000 0000 0000 0000 000000
2013-08-18 02:15:22,0.01,0.03,0.00,25.61,29.87,31.39,5.81,29.83,1007.83,2040.92,3463.97,3329.00,3624.90,348.93,317.38,1.81,0000 0000 0000 0000 000000
2013-08-18 02:16:22,-0.01,0.03,0.00,25.58,29.87,31.36,5.88,29.83,1007.81,2040.93,3463.97,3329.00,3624.89,349.43,318.17,1.81,0000 0000 0000 0000 000000
2013-08-18 02:17:22,0.01,0.03,0.00,25.58,29.87,31.38,5.86,29.92,1007.79,2040.96,3463.94,3329.00,3624.85,349.75,318.64,1.82,0000 0000 0000 0000 000000
2013-08-18 02:18:22,0.02,0.03,0.00,25.60,29.87,31.33,5.94,29.88,1007.76,2040.95,3463.87,3329.00,3624.85,349.77,318.39,1.83,0000 0000 0000 0000 000000
2013-08-18 02:19:23,0.02,0.03,0.00,25.61,29.87,31.54,5.71,29.79,1007.74,2040.94,3463.74,3329.00,3624.72,349.56,317.79,1.83,0000 0000 0000 0000 000000
2013-08-18 02:20:23,-0.00,0.03,0.00,25.58,29.87,31.52,5.99,29.88,1007.77,2040.94,3463.80,3329.00,3624.81,350.13,318.50,1.84,0000 0000 0000 0000 000000
2013-08-18 02:21:23,-0.02,0.03,0.00,25.58,29.87,31.40,5.92,29.88,1007.76,2040.93,3463.81,3329.00,3624.86,350.23,318.58,1.84,0000 0000 0000 0000 000000
2013-08-18 02:22:23,-0.00,0.03,0.00,25.59,29.87,31.38,5.91,29.88,1007.74,2040.95,3463.78,3329.00,3624.75,349.82,318.20,1.85,0000 0000 0000 0000 000000
2013-08-18 02:23:24,0.04,0.03,0.00,25.60,29.87,31.34,5.88,29.83,1007.67,2040.92,3463.57,3329.00,3624.48,349.47,318.18,1.85,0000 0000 0000 0000 000000
2013-08-18 02:24:24,0.02,0.03,0.00,25.56,29.87,31.34,5.99,29.79,1007.70,2040.87,3463.42,3329.00,3624.35,349.51,317.66,1.86,0000 0000 0000 0000 000000
2013-08-18 02:25:24,0.01,0.03,0.00,25.56,29.87,31.32,5.78,29.75,1007.66,2040.85,3463.29,3328.99,3624.25,349.98,318.04,1.87,0000 0000 0000 0000 000000
2013-08-18 02:26:24,-0.00,0.03,0.00,25.63,29.87,31.30,5.64,29.75,1007.60,2040.82,3463.19,3328.99,3624.21,349.58,317.89,1.87,0000 0000 0000 0000 000000
2013-08-18 02:27:25,0.00,0.03,0.00,25.64,29.87,31.33,6.00,29.75,1007.60,2040.89,3463.34,3328.99,3624.35,350.21,318.71,1.88,0000 0000 0000 0000 000000
2013-08-18 02:28:25,0.02,0.03,0.00,25.63,29.87,31.35,5.87,29.67,1007.65,2040.94,3463.35,3328.99,3624.48,349.56,317.91,1.88,0000 0000 0000 0000 000000
2013-08-18 02:29:25,0.02,0.03,0.00,25.61,29.87,31.33,5.78,29.75,1007.67,2040.95,3463.21,3328.99,3624.30,349.35,317.77,1.89,0000 0000 0000 0000 000000
2013-08-18 02:30:25,0.02,0.03,0.00,25.56,29.87,31.32,6.08,29.88,1007.68,2040.93,3463.17,3328.99,3624.22,351.30,319.55,1.90,0000 0000 0000 0000 000000
2013-08-18 02:31:26,0.01,0.03,0.00,25.56,29.86,31.32,5.75,29.71,1007.64,2040.95,3463.16,3328.98,3624.15,349.81,318.19,1.90,0000 0000 0000 0000 000000
2013-08-18 02:32:26,0.02,0.03,0.00,25.57,29.86,31.31,5.83,29.79,1007.60,2040.95,3463.10,3328.97,3624.18,349.63,317.94,1.91,0000 0000 0000 0000 000000
2013-08-18 02:33:26,-0.00,0.03,0.00,25.55,29.86,31.29,6.09,29.92,1007.58,2040.93,3463.13,3328.98,3624.11,350.93,319.13,1.91,0000 0000 0000 0000 000000
2013-08-18 02:34:27,-0.00,0.03,0.00,25.51,29.85,31.30,5.76,29.75,1007.53,2040.92,3463.09,3328.98,3624.06,349.48,317.89,1.92,0000 0000 0000 0000 000000
2013-08-18 02:35:27,0.00,0.03,0.00,25.56,29.85,31.32,5.77,29.75,1007.54,2040.93,3463.07,3328.98,3624.11,349.55,317.91,1.93,0000 0000 0000 0000 000000
2013-08-18 02:36:27,0.01,0.03,0.00,25.58,29.85,31.30,5.93,29.79,1007.49,2040.94,3463.05,3328.98,3624.09,348.94,317.29,1.93,0000 0000 0000 0000 000000
2013-08-18 02:37:27,0.01,0.03,0.00,25.56,29.85,31.40,6.02,29.96,1007.40,2040.95,3463.04,3328.98,3624.14,350.99,319.18,1.94,0000 0000 0000 0000 000000